Logan Peak - 24 Hour Table
Date & TimeSolar
Radiation
(W/m²)
Wind
Speed
(mph)
Wind
Direction
(degrees)
Air
Temperature
(°F)
Relative
Humidity
(%)
Barometeric
Pressure
(inHg)
2017/08/20 17:00 476 8.7 266 63.4 31 30.02
2017/08/20 16:00 641 7.5 272 63.3 35 30.02
2017/08/20 15:00 770 9.1 243 63.0 35 30.02
2017/08/20 14:00 849 11.4 224 61.7 36 30.03
2017/08/20 13:00 878 9.3 219 61.1 33 30.04
2017/08/20 12:00 851 7.1 219 59.8 35 30.04
2017/08/20 11:00 767 10.0 208 59.5 37 30.04
2017/08/20 10:00 641 11.0 199 58.4 36 30.04
2017/08/20 09:00 478 12.8 192 57.4 38 30.03
2017/08/20 08:00 233 14.8 193 56.5 40 30.02
2017/08/20 07:00 96 15.8 188 56.2 39 30.02
2017/08/20 06:00 4 14.6 180 56.0 36 30.01
2017/08/20 05:00 0 12.6 161 56.9 34 30.01
2017/08/20 04:00 0 10.7 200 57.7 30 30.01
2017/08/20 03:00 0 9.2 213 57.8 29 30.01
2017/08/20 02:00 0 6.8 186 58.3 28 30.02
2017/08/20 01:00 0 5.2 217 58.8 27 30.02
2017/08/20 00:00 0 7.6 250 58.2 29 30.02
2017/08/19 23:00 0 7.7 219 59.1 26 30.02
2017/08/19 22:00 0 8.5 213 59.3 23 30.02
2017/08/19 21:00 0 8.7 217 59.4 24 30.02
2017/08/19 20:00 4 6.6 196 60.2 21 30.02
2017/08/19 19:00 106 7.0 217 63.2 24 30.01
2017/08/19 18:00 294 7.3 235 64.0 23 30.01